Weather History for Millington, TN

Change the Weather History Date:

Tuesday, October 22, 2013

  Actual Average Record
Temperature  
Mean Temperature 60 °F -  
Max Temperature 68 °F 72 °F 84 °F (2004)
Min Temperature 51 °F 50 °F 37 °F (2011)
Degree Days  
Heating Degree Days 6    
Growing Degree Days 10 (Base 50)    
Moisture  
Dew Point 48 °F    
Average Humidity 76    
Maximum Humidity 100    
Minimum Humidity 40    
Precipitation  
Precipitation 0.00 in - - ()
Sea Level Pressure  
Sea Level Pressure 30.01 in    
Wind  
Wind Speed 5 mph (NNW)    
Max Wind Speed 13 mph    
Max Gust Speed -    
Visibility 10 miles    
Events      
Averages and records for this station are not official NWS values.
T = Trace of Precipitation, MM = Missing Value Source: NWS Daily Summary

Daily Weather History Graph

Daily Weather History Graph

Search for Another Location

Airport:

Trip Planner

Search our weather history database for the weather conditions in past years. The results will help you decide how hot, cold, wet, or windy it might be!

Date:

Astronomy

Oct. 22, 2013 Rise Set
Actual Time 7:12 AM CDT 6:15 PM CDT
Civil Twilight 6:46 AM CDT 6:41 PM CDT
Nautical Twilight 6:16 AM CDT 7:10 PM CDT
Astronomical Twilight 5:46 AM CDT 7:40 PM CDT
Moon 9:01 PM CDT (10/22) 10:34 AM CDT (10/22)
Length of Visible Light 11h 54m
Length of Day
11h 03m
Waning Gibbous, 86% of the Moon is Illuminated
Oct 22
Waning Gibbous
Oct 26
Last Quarter
Nov 3
New
Nov 9
First Quarter
Nov 17
Full

Hourly Weather History & Observations

Time (CDT) Temp. Dew Point Humidity Pressure Visibility Wind Dir Wind Speed Gust Speed Precip Events Conditions
12:55 AM 55.4 °F 53.6 °F 94% 30.05 in 10.0 mi North 3.5 mph - N/A   Overcast
1:55 AM 53.6 °F 51.8 °F 94% 30.05 in 10.0 mi North 4.6 mph - N/A   Overcast
2:55 AM 53.6 °F 51.8 °F 94% 30.06 in 10.0 mi North 5.8 mph - N/A   Overcast
3:15 AM 53.6 °F 51.8 °F 94% 30.07 in 10.0 mi North 4.6 mph - N/A   Overcast
3:35 AM 53.6 °F 51.8 °F 94% 30.06 in 10.0 mi North 3.5 mph - N/A   Overcast
3:55 AM 51.8 °F 51.8 °F 100% 30.06 in 10.0 mi North 3.5 mph - N/A   Overcast
4:15 AM 51.8 °F 50.0 °F 94% 30.05 in 10.0 mi North 10.4 mph - N/A   Overcast
4:35 AM 51.8 °F 48.2 °F 88% 30.05 in 10.0 mi North 5.8 mph - N/A   Overcast
4:55 AM 51.8 °F 48.2 °F 88% 30.05 in 10.0 mi NNE 5.8 mph - N/A   Overcast
5:15 AM 51.8 °F 48.2 °F 88% 30.06 in 10.0 mi North 4.6 mph - N/A   Overcast
5:35 AM 51.8 °F 48.2 °F 88% 30.05 in 10.0 mi North 4.6 mph - N/A   Overcast
5:55 AM 51.8 °F 48.2 °F 88% 30.06 in 10.0 mi Calm Calm - N/A   Overcast
6:55 AM 51.8 °F 50.0 °F 94% 30.07 in 10.0 mi North 4.6 mph - N/A   Overcast
7:55 AM 51.8 °F 48.2 °F 88% 30.06 in 10.0 mi NNE 3.5 mph - N/A   Mostly Cloudy
8:55 AM 51.8 °F 48.2 °F 88% 30.08 in 10.0 mi North 3.5 mph - N/A   Scattered Clouds
9:55 AM 55.4 °F 46.4 °F 72% 30.07 in 10.0 mi NNE 4.6 mph - N/A   Partly Cloudy
10:55 AM 59.0 °F 44.6 °F 59% 30.05 in 10.0 mi Calm Calm - N/A   Partly Cloudy
11:55 AM 62.6 °F 46.4 °F 55% 30.04 in 10.0 mi Variable 4.6 mph - N/A   Clear
12:55 PM 66.2 °F 42.8 °F 43% 30.00 in 10.0 mi WSW 6.9 mph - N/A   Clear
1:55 PM 66.2 °F 44.6 °F 46% 29.97 in 10.0 mi Variable 6.9 mph - N/A   Clear
2:55 PM 66.2 °F 42.8 °F 43% 29.95 in 10.0 mi West 12.7 mph - N/A   Clear
3:55 PM 68.0 °F 42.8 °F 40% 29.93 in 10.0 mi SW 8.1 mph - N/A   Scattered Clouds
4:55 PM 66.2 °F 42.8 °F 43% 29.91 in 10.0 mi SW 6.9 mph - N/A   Clear
5:55 PM 62.6 °F 42.8 °F 48% 29.91 in 10.0 mi Variable 3.5 mph - N/A   Clear
6:55 PM 55.4 °F 44.6 °F 67% 29.93 in 10.0 mi Calm Calm - N/A   Clear
7:55 PM 53.6 °F 46.4 °F 77% 29.94 in 9.0 mi Calm Calm - N/A   Clear
8:55 PM 53.6 °F 46.4 °F 77% 29.94 in 10.0 mi Calm Calm - N/A   Clear
10:55 PM 55.4 °F 46.4 °F 72% 29.95 in 10.0 mi WSW 5.8 mph - N/A   Overcast
11:55 PM 55.4 °F 48.2 °F 77% 29.96 in 10.0 mi West 6.9 mph - N/A   Overcast